sat.trackr.live / text

‹ back to catalog

PIESAT C

NORAD 56155 · 2023-047C

PAYLOAD ACTIVE UNKNOWN

§ Identity

Operator
Country
PRC
Launch date
2023-03-30
Launch site
TAISC
Launch vehicle
Mass (kg)
RCS (m²)

External: N2YO · Heavens-Above · Gunter

§ Orbital elements

Epoch: 2026-09-21T13:32:55.114656Z

Period
95.09 min
Inclination
97.5020°
Eccentricity
0.0001733
Mean motion
15.14291632 rev/d
Perigee alt
521.9 km
Apogee alt
524.3 km
Semi-major
6,901.3 km
B*
1.5439e-4
RAAN
90.3200°
Arg perigee
89.2259°
Mean anomaly
270.9171°
Rev number
19,238

§ Raw data

PIESAT C1 56155U 23047C   26264.56452679  .00002760  00000+0  15439-3 0  99912 56155  97.5020  90.3200 0001733  89.2259 270.9171 15.14291632192384

JSON: /api/v1/satellites/56155 · /tle

For live sub-satellite position, see the globe view (requires WebGL).

§ Visibility from observer

Set your observer location to see the next 7 days of passes ≥ 10°. The values pass through the URL so the page stays shareable.

No JS? Fill the form by hand. The geolocation button needs JavaScript.